Theta_e
300 301 301 302 302 302 302 302 302 302 302 301 301 301 300 299 298 298 298 298 298 298 298 298 298 298 298 298 299 299 300 301 302 303 303 303 303 303 304 305 305 305 306 306 306 306 306 306 306 306 307 307 307 307 308 309 309 310 310 309 309 309 309 309 309 309 309 309 309
299 300 301 302 302 302 302 302 302 302 301 301 301 301 301 299 298 298 298 298 298 298 298 298 298 298 298 298 298 298 298 299 300 301 302 302 302 302 303 303 304 305 305 305 305 305 305 306 305 305 306 306 306 306 307 307 308 309 309 308 309 309 309 308 308 308 308 308 308
299 300 300 301 301 301 301 301 300 301 301 301 301 302 301 300 299 298 298 298 298 298 298 298 298 298 298 298 297 297 297 298 299 300 300 301 301 301 302 302 303 303 304 304 304 305 305 305 305 305 305 305 305 305 306 307 307 308 308 308 308 308 308 308 308 308 308 308 307
299 299 300 300 300 300 301 300 300 300 300 300 301 301 301 300 299 298 297 297 297 297 297 297 296 297 298 298 297 297 297 298 298 298 299 299 300 301 301 301 301 302 302 303 303 303 304 305 305 305 305 305 305 305 305 306 307 307 307 307 307 307 307 307 307 307 307 307 306
299 299 299 300 300 300 301 300 300 300 300 300 300 300 300 299 298 297 297 297 297 297 297 296 296 297 297 297 297 297 297 298 299 298 297 298 299 300 300 301 301 301 301 302 302 302 303 303 304 304 304 304 304 304 304 305 305 306 306 306 306 306 306 306 306 306 306 306 306
298 299 299 299 300 300 300 301 300 300 300 300 300 299 299 298 298 297 296 295 296 296 297 297 297 298 297 297 297 297 297 297 297 297 296 297 297 298 299 300 300 300 300 300 301 301 302 302 303 303 303 303 303 303 303 304 304 305 305 304 304 304 304 303 303 304 305 306 305
298 299 299 299 299 299 299 300 300 300 300 299 299 299 299 298 297 296 295 294 295 295 296 297 297 297 297 296 296 296 296 296 296 296 296 296 297 297 297 298 299 299 300 300 300 300 301 301 301 302 301 301 301 302 302 303 303 303 303 303 303 303 303 302 302 302 303 304 304
298 298 299 299 299 299 299 299 299 299 299 299 299 299 299 298 296 295 295 294 294 294 295 296 295 295 296 297 297 297 296 295 296 296 296 296 296 296 295 295 296 297 298 299 299 299 300 300 300 300 301 300 300 300 301 301 301 302 302 301 301 302 302 302 302 302 302 303 302
297 298 298 299 299 299 299 299 299 299 298 298 298 298 298 297 294 294 293 294 294 294 294 294 294 294 295 297 297 297 296 295 295 296 296 296 295 295 295 295 295 295 296 297 298 298 299 299 300 300 300 300 299 299 299 300 300 300 300 300 300 300 300 301 301 301 302 302 301
295 296 297 298 298 299 299 299 299 298 298 298 298 298 297 296 294 293 293 294 294 293 293 293 293 294 295 296 297 296 296 296 295 295 296 296 296 296 295 294 294 294 295 296 296 297 298 299 299 299 299 299 298 298 298 299 299 299 299 299 299 299 299 299 300 300 301 300 300
294 295 296 297 298 298 299 298 298 298 298 297 298 297 296 294 293 292 293 293 292 292 292 292 293 294 295 296 296 296 296 295 295 295 295 296 296 296 296 295 295 294 294 295 295 296 297 298 299 299 299 299 298 297 297 298 299 299 298 298 298 297 297 297 298 299 299 299 299
293 294 295 296 297 298 298 297 297 297 297 297 297 297 296 294 293 293 293 291 291 291 292 293 294 294 295 296 296 296 295 295 295 295 295 295 296 296 296 296 295 295 295 295 295 295 295 296 297 298 298 298 297 297 297 298 298 297 297 297 297 296 296 296 296 297 298 298 298
291 292 294 295 296 297 297 297 297 296 296 296 296 296 296 295 295 294 292 290 291 291 291 294 293 293 293 294 295 295 295 294 294 294 294 295 295 295 296 296 296 296 296 295 294 294 294 295 296 297 297 297 297 297 298 298 297 296 296 296 296 296 296 296 296 296 297 297 297
290 291 292 294 294 295 296 296 296 296 296 296 296 296 296 296 296 295 292 290 290 290 290 291 292 292 292 292 294 294 294 294 294 294 294 294 294 294 295 295 296 296 296 295 294 294 294 294 295 296 297 297 297 297 297 297 297 296 296 295 296 296 296 296 296 296 296 295 295
289 290 290 291 292 293 294 294 295 295 295 296 296 295 295 295 295 295 293 290 290 290 290 289 290 290 291 290 291 292 292 293 293 293 293 293 294 294 294 294 295 296 296 295 295 294 294 294 294 295 296 297 296 296 297 297 297 296 296 296 296 296 296 296 295 295 295 294 294
289 289 290 290 290 291 292 293 293 294 294 294 294 294 293 292 293 293 292 290 290 290 289 289 289 289 289 290 290 289 289 290 291 291 292 293 293 293 293 294 294 295 295 296 295 295 295 295 294 294 294 295 296 296 296 296 297 297 296 296 296 296 295 295 295 295 294 294 294
289 289 289 290 290 290 291 291 291 292 292 291 292 292 291 291 292 292 292 291 290 289 289 288 288 287 288 289 289 289 288 288 288 289 290 292 293 293 293 293 294 294 295 295 295 295 296 296 295 294 293 293 295 296 297 296 296 296 296 296 296 296 295 295 295 294 294 294 294
289 289 289 290 290 290 290 290 290 290 290 290 291 291 291 291 291 291 291 291 290 288 288 287 287 286 286 286 287 288 288 287 287 288 289 291 292 292 292 292 293 294 294 294 295 295 295 295 295 294 293 293 294 295 296 296 296 296 296 296 296 295 295 295 294 294 294 293 294
289 289 289 290 290 290 290 291 290 290 290 290 290 290 291 290 290 289 289 289 289 288 287 286 286 286 286 286 286 287 288 287 287 287 288 288 289 290 291 292 292 293 293 294 294 295 295 295 295 294 294 293 293 294 294 294 294 295 295 295 295 295 294 294 294 293 293 293 293
289 289 289 290 290 290 290 291 290 290 290 291 291 291 290 289 289 288 288 287 288 287 286 286 285 285 285 285 285 286 286 287 286 286 287 287 287 288 289 290 291 292 293 293 294 294 294 295 295 294 294 294 294 294 293 293 292 293 293 293 293 293 293 292 292 291 291 292 291
288 289 289 290 290 290 290 290 290 290 291 291 290 290 290 289 288 287 287 287 287 286 286 285 285 285 285 285 285 285 285 287 286 286 286 286 287 287 288 289 290 291 292 292 293 293 293 294 294 294 294 294 294 294 293 292 292 292 292 291 291 291 291 290 289 289 289 290 290
288 288 289 289 290 290 290 290 290 290 290 290 290 290 290 289 288 287 287 287 287 286 286 285 285 284 284 284 284 284 285 285 285 285 286 286 286 287 287 288 288 289 291 291 292 292 292 293 293 293 293 294 294 294 293 293 292 292 291 291 290 290 290 290 288 288 288 288 289
287 288 288 289 289 290 290 290 290 290 290 290 290 290 290 289 288 288 287 287 287 286 286 285 285 284 284 284 284 284 284 284 284 285 285 285 285 286 286 287 287 288 289 290 291 291 291 291 291 291 291 292 293 293 293 293 292 292 291 291 290 290 290 289 288 288 288 288 289
287 287 288 289 289 289 290 289 289 290 289 289 290 290 289 289 288 288 287 287 287 286 286 285 285 284 284 284 284 284 284 284 284 284 284 284 285 285 285 285 286 286 287 289 290 291 291 291 290 289 289 290 292 292 292 292 292 292 291 290 290 289 289 288 289 289 290 289 289
286 287 287 288 288 288 289 289 289 289 289 289 289 289 289 289 288 288 287 287 286 286 285 285 284 284 283 283 283 283 283 283 283 283 283 284 284 284 284 284 285 285 287 289 292 294 294 293 291 289 288 288 289 290 290 291 291 291 290 290 289 288 288 287 288 288 289 290 289
286 286 287 287 288 288 288 289 289 289 289 289 289 289 289 289 288 288 287 286 286 286 285 285 284 284 284 283 283 283 283 282 283 283 283 283 283 283 283 284 284 285 287 291 293 294 294 294 293 291 288 286 286 287 287 288 289 289 289 288 288 287 287 287 287 287 288 289 289
286 286 287 287 287 288 288 288 288 288 288 288 288 289 288 288 288 287 287 286 286 286 285 285 284 286 286 283 282 282 282 282 282 282 282 282 282 283 283 283 284 285 287 291 293 294 294 295 294 293 290 287 286 285 285 286 286 287 287 287 287 287 286 286 286 287 287 287 288
286 286 286 287 287 287 288 288 288 288 288 288 288 288 288 288 287 287 286 286 286 286 285 285 285 285 284 283 282 282 282 282 282 282 282 282 282 282 282 283 283 285 288 292 293 294 294 295 295 294 292 289 286 285 285 284 285 285 285 286 286 286 286 286 286 287 287 287 287
286 286 286 286 287 287 287 287 288 288 288 288 288 288 288 288 287 287 286 286 286 285 285 285 285 284 283 282 282 282 282 282 282 282 282 282 282 282 282 282 283 286 290 292 293 293 294 294 294 295 293 291 287 285 284 284 284 284 284 284 285 285 286 286 286 286 286 286 286
286 286 286 286 286 287 287 287 288 288 288 289 288 288 288 288 287 287 286 286 285 285 285 285 285 284 283 282 282 282 282 282 282 282 281 281 281 282 282 284 283 286 289 293 293 293 293 294 294 294 294 292 288 285 283 284 283 283 283 283 283 284 285 285 285 286 286 286 286
286 286 286 286 286 287 287 287 287 288 288 288 288 288 288 288 287 287 286 286 285 286 286 285 284 283 283 283 282 282 282 282 282 282 281 281 283 283 282 283 283 286 289 293 293 293 293 293 294 294 294 293 289 285 283 283 283 283 283 283 283 284 284 285 285 285 286 286 286
286 286 286 286 286 286 287 287 287 287 288 288 288 288 288 288 287 287 286 286 286 286 286 285 284 284 283 283 283 282 282 282 282 282 281 281 281 281 282 282 283 285 289 292 293 293 293 293 294 295 294 293 289 285 282 282 282 282 282 283 283 284 284 285 285 285 285 286 286
286 286 286 286 286 286 286 286 287 287 287 287 287 288 287 287 287 286 286 286 286 286 285 285 284 284 283 283 283 282 282 282 282 283 283 283 282 281 282 283 282 286 290 292 292 293 293 293 294 295 294 293 288 284 281 281 281 281 281 282 283 283 284 285 285 285 285 286 286
286 286 286 286 286 286 286 286 287 287 287 287 287 287 287 287 287 286 286 287 286 286 285 285 284 284 284 283 283 283 283 283 283 282 282 282 281 282 282 281 282 286 290 291 292 292 293 294 294 295 294 292 287 283 281 281 281 281 281 282 282 283 284 285 285 285 286 286 286
287 286 286 286 286 286 286 286 286 286 286 286 286 287 287 287 287 287 287 287 287 286 285 285 285 285 284 284 283 283 283 283 282 282 282 282 281 282 282 281 282 286 290 291 292 292 293 294 294 295 294 291 285 282 281 281 281 281 281 282 283 283 284 284 284 284 285 286 286
287 287 286 286 286 286 286 286 286 286 286 286 286 286 286 286 287 287 287 288 287 286 285 285 285 284 284 284 284 284 284 282 282 282 282 282 282 281 281 281 282 286 290 291 292 292 293 294 294 294 292 288 283 281 280 280 280 281 281 282 283 283 283 283 283 283 284 285 285
287 287 287 286 286 286 286 286 286 286 286 286 286 286 286 286 286 287 287 288 286 285 285 285 284 284 284 283 283 283 283 283 283 282 282 283 282 281 281 281 281 285 289 291 292 292 293 294 295 293 290 285 282 281 280 280 280 280 281 282 282 282 282 282 283 283 284 284 285
287 287 287 287 286 286 286 286 286 285 285 285 285 285 285 286 286 286 287 288 286 285 285 284 284 284 284 284 283 283 283 283 283 283 282 283 282 281 281 281 281 284 287 291 292 293 293 294 295 293 288 284 281 280 280 280 280 280 280 280 281 281 281 281 282 283 283 284 287
287 287 287 287 286 286 286 286 286 285 285 285 285 285 285 285 286 286 287 288 286 285 285 284 284 284 284 284 283 283 282 283 284 284 283 282 282 283 283 281 281 283 287 291 292 293 293 294 295 292 289 285 282 281 280 280 279 279 279 279 279 280 280 280 282 282 283 285 288
288 287 287 287 286 286 286 286 285 285 285 285 285 285 285 285 286 286 287 287 286 285 284 284 284 284 285 286 284 283 282 282 282 283 283 282 283 285 285 282 281 283 287 291 292 293 293 294 294 292 289 285 282 281 281 280 279 279 279 279 279 279 279 280 281 282 283 284 287
288 287 287 287 286 286 286 286 285 285 285 285 284 285 285 286 286 286 286 286 285 285 285 284 284 284 285 286 284 283 282 282 282 282 282 283 284 285 286 282 281 282 285 289 292 293 293 294 294 293 290 286 283 281 281 280 279 279 278 278 278 278 279 279 280 281 282 283 285
Wind_Speed
3 2 2 2 2 2 2 2 2 2 1 1 2 2 2 2 2 2 2 2 2 2 2 2 2 2 2 3 4 5 5 5 5 6 6 6 6 6 6 6 6 6 6 6 6 5 5 5 5 4 4 4 4 4 4 4 4 5 5 5 5 5 6 7 7 7 7 6 4
2 2 2 2 1 1 1 2 2 2 1 1 1 1 1 1 1 1 1 2 2 2 2 2 2 2 2 3 4 4 4 5 5 5 6 6 5 5 6 6 6 6 6 6 6 5 4 4 4 4 3 3 4 4 4 4 4 5 6 6 5 4 5 6 6 6 6 5 4
2 2 1 1 1 1 1 2 2 2 2 1 1 0 0 1 1 1 1 1 2 2 2 2 2 2 2 2 3 3 4 4 5 5 5 5 5 6 6 6 6 7 6 6 6 5 4 3 3 3 3 3 4 4 4 4 4 4 5 5 4 3 4 4 5 5 5 4 4
2 2 1 2 2 1 1 2 2 2 2 1 0 0 0 1 1 1 1 2 3 3 3 2 1 2 2 2 3 3 4 4 4 4 4 4 5 6 6 6 6 6 6 6 6 5 5 4 3 3 3 4 4 4 4 3 4 3 3 3 3 3 3 4 4 3 4 4 4
2 2 2 2 2 1 0 2 2 2 2 1 0 0 0 0 0 0 1 2 2 3 3 2 0 1 1 2 3 4 4 4 5 4 4 4 5 6 6 6 6 6 6 6 6 6 5 5 3 3 3 4 3 3 3 4 3 3 3 2 3 3 3 3 3 3 3 3 3
2 2 1 1 2 2 1 1 2 2 2 0 1 1 1 1 1 1 1 2 3 3 3 2 1 0 1 3 4 5 4 4 4 4 4 4 5 5 6 6 6 5 5 5 6 6 6 5 3 3 3 3 3 4 4 4 4 3 3 3 3 3 3 3 2 2 2 3 4
2 2 1 1 1 1 1 1 1 1 1 0 1 2 1 1 0 1 2 3 3 3 3 2 1 1 3 4 5 5 5 4 4 5 5 5 5 5 5 5 5 5 5 5 5 5 5 5 3 3 3 3 3 4 5 5 4 4 3 4 3 3 3 3 2 2 2 4 5
2 2 1 1 1 1 1 0 0 0 1 1 2 2 1 1 2 1 2 3 3 2 2 1 2 3 4 4 5 5 4 5 5 5 5 5 5 5 5 4 4 4 4 4 4 4 4 4 3 3 3 3 3 3 4 5 5 4 4 4 3 3 3 2 2 2 3 4 5
2 2 2 2 2 2 2 1 1 1 2 2 2 1 1 2 2 2 2 3 2 2 2 1 2 3 4 5 5 4 4 4 4 4 4 4 4 4 4 4 4 4 4 4 4 4 4 3 3 3 3 3 3 3 4 5 5 4 4 4 3 3 2 2 3 3 3 4 5
3 2 2 2 3 3 3 3 3 3 3 3 2 1 1 2 1 1 2 2 2 2 2 2 2 3 4 4 4 4 3 3 3 3 3 3 3 3 3 2 3 3 3 3 3 3 3 3 3 3 3 3 3 3 3 4 4 4 4 3 3 3 3 3 3 3 3 4 5
4 3 3 2 3 3 3 3 3 3 3 3 3 2 2 1 0 1 1 2 1 1 1 2 3 3 4 4 4 4 3 3 3 3 3 3 3 3 2 2 2 2 2 2 2 2 3 3 3 3 4 3 3 3 3 3 4 4 4 3 3 4 3 3 3 3 3 3 4
4 4 3 3 3 3 3 3 3 3 3 3 2 2 2 2 1 1 2 2 1 1 2 2 3 3 3 3 3 3 3 3 3 3 3 3 3 3 2 2 2 2 2 2 2 2 2 2 3 4 4 4 3 3 3 3 4 4 4 4 4 3 3 3 3 2 2 3 4
4 4 4 4 3 3 3 3 3 3 3 3 2 2 2 2 2 2 2 1 1 1 2 3 3 3 3 3 3 3 3 3 3 2 2 3 3 2 2 2 2 2 2 1 1 1 2 2 3 4 5 4 3 2 2 3 3 3 4 3 3 3 3 2 2 2 2 3 3
4 4 4 4 4 4 3 3 3 3 3 3 2 2 2 2 2 2 2 2 2 2 2 3 2 2 2 3 3 3 3 3 2 2 2 2 2 2 2 2 2 2 2 1 1 1 2 2 3 4 5 5 4 3 2 2 3 3 3 3 3 3 3 2 2 2 2 3 3
5 5 5 5 5 4 4 4 3 3 3 3 3 3 3 3 3 3 3 3 3 2 3 3 3 3 3 3 4 4 4 3 3 2 2 2 3 2 2 2 2 2 2 1 1 1 2 2 2 3 4 5 4 4 3 2 2 2 2 3 3 3 3 2 2 2 2 2 3
6 6 5 5 5 5 5 4 4 3 4 4 4 4 4 3 3 3 4 4 3 3 3 3 3 3 3 3 4 4 4 3 3 3 2 2 3 3 2 2 2 2 2 1 1 1 2 2 2 3 3 4 4 4 4 3 3 2 2 2 3 3 3 3 2 2 2 2 2
7 6 6 6 6 6 5 5 4 4 4 4 4 4 4 4 4 4 4 4 3 3 3 3 3 3 3 3 3 3 3 3 3 3 3 3 3 3 3 2 2 2 1 1 1 2 2 2 2 3 3 3 4 4 4 4 4 3 3 2 3 3 3 3 3 2 2 2 3
7 7 7 7 7 7 6 6 5 4 4 4 4 4 4 4 4 4 4 4 4 4 4 3 3 3 3 3 2 2 3 3 3 3 3 4 4 4 3 2 2 1 1 1 1 2 2 3 3 3 3 3 3 3 4 4 4 4 4 4 4 3 3 3 2 2 2 2 3
8 8 8 8 8 7 7 7 6 5 5 4 4 4 4 4 4 4 4 3 3 4 4 3 3 2 2 2 2 2 2 2 2 3 3 3 4 4 4 4 3 2 2 1 1 1 2 3 3 3 3 3 3 3 4 4 4 4 5 5 4 4 3 3 3 2 2 2 3
9 9 9 9 8 8 7 7 6 6 5 4 4 5 4 4 4 4 4 3 3 3 4 4 3 3 2 2 2 2 2 1 2 2 2 2 2 3 3 4 4 3 3 3 2 2 2 3 4 4 4 3 3 4 4 4 4 5 5 5 5 4 4 3 3 3 3 2 3
9 9 9 9 8 8 8 7 6 6 5 5 5 5 4 3 4 4 4 4 3 3 4 4 3 3 3 2 2 2 2 1 2 2 2 2 2 2 2 2 2 3 3 3 3 2 2 2 3 4 4 4 4 4 4 4 4 4 4 4 4 4 4 3 3 2 2 2 2
9 9 8 9 9 8 8 7 6 6 5 5 5 5 4 4 4 4 5 4 4 3 3 3 3 3 3 3 3 2 2 2 2 2 2 2 2 1 1 1 2 2 2 2 2 2 2 2 2 2 3 4 5 5 5 5 5 5 4 4 4 4 4 3 2 2 1 1 1
8 8 7 8 8 8 8 7 7 6 6 5 5 5 5 4 4 5 5 4 4 3 3 3 3 3 3 3 3 3 2 2 2 2 2 2 2 2 2 1 2 2 2 2 2 2 2 2 1 1 2 3 4 5 5 6 5 5 5 5 4 4 4 3 3 2 1 1 1
9 8 7 7 8 8 8 7 7 6 6 6 6 6 5 5 5 5 5 5 5 4 4 3 3 3 3 3 3 3 3 3 2 2 2 2 2 2 2 2 2 2 2 2 3 4 4 3 2 1 1 2 3 4 5 5 5 6 6 5 5 4 4 3 3 3 2 2 1
9 8 8 7 8 8 8 8 8 7 7 6 6 6 5 5 5 5 5 5 5 5 4 4 3 3 3 3 3 3 3 3 3 3 2 2 2 2 2 2 2 2 2 3 6 7 7 6 4 2 1 1 2 2 3 3 4 5 5 5 5 5 4 4 3 3 3 3 2
9 9 9 9 8 8 8 8 8 8 7 6 6 6 5 5 5 5 5 5 5 5 4 4 4 4 3 3 3 2 2 2 3 3 3 2 2 2 1 1 1 1 2 4 6 7 8 8 7 5 3 2 2 2 2 2 2 3 4 4 5 5 4 4 4 3 3 3 3
9 9 9 9 9 9 9 9 8 7 7 6 7 6 6 6 6 6 6 5 5 4 4 4 4 4 4 3 3 3 2 2 2 3 3 3 2 2 2 1 1 1 2 5 6 7 7 7 7 7 5 3 3 2 2 2 2 2 2 3 3 4 4 4 4 4 3 3 3
10 10 10 9 9 9 9 8 8 8 8 8 7 7 6 6 6 6 6 5 5 4 4 3 4 4 3 3 3 3 3 3 2 3 3 3 2 2 2 2 1 2 3 5 7 7 7 7 7 7 7 5 3 3 3 3 2 2 2 2 2 2 3 4 4 4 4 3 3
11 10 10 10 10 10 9 9 9 9 9 8 8 7 7 7 7 7 6 6 6 5 4 3 3 3 3 3 4 4 3 3 3 3 3 2 2 2 2 2 2 3 4 6 7 7 7 7 7 7 8 7 4 3 3 3 2 2 1 1 1 1 2 2 3 3 3 3 3
10 10 10 11 11 10 10 10 10 9 8 8 8 8 8 7 7 7 7 7 6 5 5 4 4 4 4 4 4 4 4 3 3 3 3 3 3 2 2 2 2 3 4 6 7 7 7 8 7 8 8 8 6 4 3 3 2 2 1 1 0 0 1 1 2 3 3 3 3
10 10 11 11 11 11 10 10 10 9 8 8 8 8 8 8 8 8 7 7 6 5 5 5 5 5 5 4 4 4 4 4 3 3 3 4 3 3 3 2 2 3 4 7 7 7 7 8 8 8 9 9 6 4 3 3 3 2 2 1 1 1 0 1 1 2 3 3 3
10 10 11 11 11 11 10 10 9 9 9 9 9 9 9 9 8 7 7 6 6 6 5 6 6 5 5 5 5 5 5 4 4 4 4 4 4 3 3 3 2 3 5 7 7 7 8 8 8 9 9 10 7 5 4 3 3 3 2 2 2 1 1 0 0 1 2 2 3
11 11 11 11 11 10 10 9 9 9 9 10 10 10 9 9 7 6 6 6 6 6 6 6 6 6 6 5 5 5 5 5 5 5 5 5 4 4 3 3 2 4 6 7 7 8 8 8 9 9 10 10 7 5 3 3 3 2 2 2 2 1 1 1 1 1 1 1 2
11 11 11 11 11 10 10 9 9 9 10 10 10 10 9 8 7 7 7 6 6 6 6 6 6 6 6 5 5 5 5 5 6 5 5 5 5 4 3 2 2 4 7 8 8 8 9 9 9 9 10 10 6 4 3 3 3 2 2 2 2 1 1 1 1 0 0 1 1
12 12 12 11 11 10 10 10 10 10 10 10 10 10 9 9 9 8 7 7 6 6 5 5 5 5 5 4 5 5 5 6 6 6 6 5 5 4 4 3 3 5 8 9 9 9 9 9 9 10 10 9 6 4 3 3 3 3 3 2 2 2 1 1 1 1 1 0 1
12 12 12 12 11 11 10 10 10 10 11 11 11 10 9 9 8 8 7 7 6 6 6 5 5 5 5 5 4 5 5 6 6 6 6 6 5 5 4 4 4 6 8 9 10 10 10 10 10 10 11 8 5 3 3 3 3 3 3 3 2 2 2 2 2 1 1 1 2
12 12 12 12 11 11 11 11 11 11 11 12 11 11 10 9 8 7 7 7 6 6 7 6 6 6 6 6 5 5 5 6 6 6 6 6 6 5 5 4 4 6 8 10 11 11 11 11 10 11 10 7 4 3 3 3 3 3 3 3 3 3 2 2 1 1 1 1 2
12 12 12 12 12 12 11 11 12 12 12 12 10 10 9 9 8 7 7 8 6 7 7 6 6 6 6 6 6 5 6 6 6 6 6 6 6 5 5 5 5 6 7 10 11 12 12 11 11 11 11 6 5 4 3 3 3 3 3 3 3 3 2 2 1 1 1 1 2
12 12 12 12 12 12 12 12 12 12 12 11 9 8 8 7 7 7 7 7 6 6 7 6 6 6 6 6 6 6 6 6 7 7 7 6 6 6 6 5 5 5 7 10 12 13 12 11 11 12 11 7 5 4 4 3 3 3 3 3 3 3 2 2 1 1 1 1 3
11 12 12 12 12 12 12 12 12 12 10 9 8 8 8 8 7 7 7 6 6 6 6 6 6 6 6 7 7 6 6 6 6 6 7 6 7 8 7 5 5 5 7 11 13 13 13 12 12 13 12 7 5 4 4 4 4 4 3 3 3 3 2 2 1 1 1 0 2
10 11 12 12 12 12 12 12 11 10 9 8 9 8 8 8 7 7 6 6 6 6 6 6 6 7 7 7 7 6 6 5 5 5 5 6 7 8 7 5 5 5 7 10 13 14 14 13 13 14 12 7 5 4 4 4 4 4 4 4 4 3 3 2 2 1 1 1 1
Wind_Direction
294 303 321 339 4 35 64 84 84 76 57 37 26 11 5 20 43 53 57 60 65 64 56 44 28 25 29 37 37 34 31 33 46 55 58 53 45 38 36 37 38 37 37 37 40 43 45 45 48 50 51 51 51 47 41 32 33 38 44 49 56 61 64 63 61 58 55 50 46
277 290 312 326 341 23 78 97 103 103 97 70 51 20 3 11 44 62 71 73 79 75 64 42 19 15 25 40 42 39 35 34 42 51 57 55 47 41 37 38 39 37 35 33 33 36 42 45 50 53 55 55 54 50 43 31 33 41 47 47 49 55 61 64 62 62 60 56 47
277 289 299 295 276 239 139 113 114 114 110 98 95 55 10 6 57 80 87 88 84 78 69 47 14 4 12 40 50 49 42 37 40 46 53 56 50 44 39 38 37 36 33 30 27 28 30 36 49 56 60 59 56 52 44 31 34 44 50 48 46 49 55 60 59 61 63 62 52
275 277 279 278 265 245 164 119 116 109 102 90 77 27 21 1 29 72 91 91 85 82 78 64 14 346 350 37 61 60 53 46 43 44 47 53 55 52 46 40 36 32 29 26 24 22 21 22 38 54 60 61 59 54 46 33 35 43 51 49 48 52 56 60 57 59 64 68 62
256 253 260 279 285 294 66 104 113 108 102 89 82 226 155 201 140 109 99 96 98 100 103 107 113 304 338 45 62 62 57 51 48 45 43 46 53 55 54 49 41 33 26 21 19 17 15 12 28 48 55 56 56 51 42 34 35 42 49 50 47 50 57 63 64 67 74 78 76
239 233 235 267 300 324 8 69 94 99 101 110 238 226 209 203 187 156 128 114 111 114 119 137 169 213 38 54 58 56 51 45 44 42 41 42 47 51 53 55 51 44 34 22 17 14 12 9 23 41 49 50 51 45 39 33 35 42 49 52 45 43 44 45 50 64 80 91 88
241 231 215 214 284 318 344 31 68 90 106 195 255 247 231 206 167 131 123 114 108 111 120 140 140 85 66 63 60 54 46 38 37 38 39 41 44 46 47 48 51 51 47 34 24 17 13 10 23 38 45 44 42 37 33 33 35 43 54 58 50 42 33 23 15 28 64 87 89
255 245 218 182 195 238 271 283 138 152 175 212 264 277 311 30 23 46 81 94 95 97 102 98 81 76 76 76 71 62 52 43 41 40 41 42 41 41 41 42 45 48 49 45 38 28 20 18 29 39 44 45 41 32 29 30 34 45 58 68 63 51 34 16 4 15 50 78 83
247 247 231 194 187 195 205 202 206 211 211 205 234 267 0 38 20 23 46 79 91 97 97 86 76 77 79 82 82 77 68 57 52 51 50 48 45 42 39 37 39 42 44 45 45 40 35 34 42 47 50 53 50 40 32 30 36 44 56 72 70 59 40 21 12 24 49 72 79
226 231 230 217 203 197 194 188 202 215 220 211 209 197 113 62 33 27 47 74 91 100 102 96 87 83 82 83 86 86 81 74 68 63 61 59 57 53 47 40 40 41 43 44 47 48 49 53 57 59 60 61 59 52 44 41 47 52 57 67 66 57 45 28 24 36 55 72 79
216 221 225 223 219 210 197 187 196 211 221 217 202 180 148 116 121 81 74 78 88 99 103 97 91 89 88 88 90 90 88 82 76 71 68 66 63 62 59 55 51 52 52 51 51 54 60 67 72 72 70 65 58 54 52 55 63 67 68 66 63 59 51 34 30 38 58 76 82
213 218 221 221 227 223 211 196 195 205 216 220 198 174 158 158 171 136 105 94 106 115 106 93 90 90 92 95 96 96 94 89 81 77 74 72 67 63 61 57 58 61 65 65 61 63 69 78 86 87 84 76 64 56 55 63 74 78 78 74 70 67 60 46 34 37 55 77 85
210 215 218 216 222 224 222 212 202 202 208 214 188 167 162 178 181 151 127 129 156 142 115 100 96 99 104 108 107 105 102 98 93 89 85 82 76 69 59 54 54 61 70 75 69 66 71 81 93 100 102 98 86 72 64 70 82 87 91 90 87 84 78 64 46 42 56 73 83
208 213 215 213 215 216 218 217 209 204 204 205 183 167 166 195 192 167 150 164 180 159 131 118 121 131 136 133 126 121 116 111 109 105 103 101 95 85 71 58 52 57 66 74 71 71 75 81 93 103 109 113 108 97 83 78 89 99 108 113 112 108 101 88 65 53 59 73 81
207 211 212 212 211 211 212 214 211 207 204 205 188 176 177 200 195 179 168 183 186 166 145 139 150 156 155 144 137 133 129 126 125 124 124 121 114 107 96 79 62 59 63 72 72 76 78 84 90 98 106 115 117 113 104 91 93 102 115 125 126 122 116 107 88 71 65 75 80
204 207 209 209 208 208 208 211 210 207 204 204 190 182 184 199 192 181 178 188 183 167 154 156 159 158 151 143 139 138 135 136 139 144 146 141 130 122 116 102 83 71 67 72 77 81 83 87 88 91 97 107 116 119 118 111 103 98 101 109 115 116 114 109 98 85 75 76 81
201 203 205 206 206 207 207 208 208 206 204 201 189 186 188 198 190 182 181 187 177 166 160 163 155 147 140 139 140 140 141 145 152 159 161 153 140 132 126 118 102 86 74 73 82 93 97 94 90 87 88 91 103 114 120 120 114 105 96 88 91 96 100 102 98 92 85 83 85
199 200 200 202 204 205 206 206 205 205 203 199 192 191 192 197 186 181 179 181 169 160 157 156 144 134 131 134 137 140 143 149 159 165 164 154 145 140 137 134 125 113 97 86 92 104 110 109 102 95 88 84 87 97 106 112 112 109 101 91 87 85 86 86 86 87 88 91 92
197 197 197 199 201 203 204 204 204 203 201 198 194 194 195 195 179 169 165 167 157 151 146 141 133 127 127 130 130 133 138 145 154 156 153 147 144 145 146 150 152 150 145 135 131 125 124 122 118 112 104 96 91 90 92 96 98 99 98 95 88 81 73 64 57 55 64 81 91
196 196 196 197 197 199 201 203 202 201 199 197 194 194 194 189 164 150 147 152 147 139 133 131 131 131 130 127 125 127 130 135 134 128 125 121 127 136 146 153 159 160 159 161 161 151 138 132 131 130 128 126 116 105 97 93 92 93 93 93 89 83 74 61 49 41 42 56 78
197 196 195 193 193 195 198 200 199 198 197 195 193 192 189 175 149 142 143 146 138 131 127 130 135 138 139 134 134 137 137 130 122 116 111 103 104 112 128 143 150 153 155 159 152 140 129 128 135 141 146 146 137 127 116 107 102 101 100 99 97 94 89 80 66 52 42 43 63
198 195 192 190 190 192 194 196 196 196 195 193 191 188 181 165 149 145 144 143 137 133 134 138 144 147 149 147 147 146 142 129 120 120 121 120 122 124 127 127 122 127 134 142 127 116 109 110 124 140 147 148 142 138 134 130 124 120 117 116 113 112 110 108 102 88 69 51 57
196 193 190 188 187 188 190 192 192 193 193 191 187 183 176 164 155 150 147 145 144 145 148 152 153 153 152 150 148 144 138 127 120 122 129 135 141 149 153 147 134 137 146 153 136 128 123 117 112 119 130 137 140 144 145 144 143 141 138 135 133 132 133 132 131 128 120 106 89
193 191 188 186 184 185 186 188 189 191 191 189 186 181 175 166 159 154 152 152 153 155 157 158 155 150 146 143 141 140 138 135 133 134 138 144 148 154 158 155 152 158 167 172 163 157 153 146 134 119 112 121 137 146 151 153 154 153 150 148 148 149 149 149 148 148 148 152 155
191 189 187 184 183 183 184 185 187 189 189 188 184 179 174 168 163 160 157 158 160 160 159 155 148 140 135 135 136 137 138 141 144 146 150 156 156 157 156 158 162 170 177 181 173 167 162 157 151 143 126 112 117 126 135 143 148 151 152 152 153 154 156 159 158 158 159 164 172
189 188 187 184 182 182 183 185 186 187 187 185 181 178 176 171 167 163 162 162 164 163 158 149 142 138 136 134 136 137 140 144 146 149 152 160 163 165 164 169 172 178 181 184 175 171 167 162 156 149 134 103 96 90 88 90 108 126 137 145 149 153 158 162 164 165 165 168 174
189 189 188 184 181 182 184 186 184 184 185 184 181 179 176 172 168 166 165 165 165 162 156 147 142 142 142 139 142 146 152 155 150 150 152 157 164 170 175 182 182 184 184 182 174 173 172 170 162 153 138 108 103 98 93 82 71 77 97 122 139 149 157 161 165 165 165 166 169
190 189 187 183 183 184 185 183 183 184 185 184 181 179 175 170 169 169 169 168 166 162 157 152 148 145 143 144 151 158 162 163 157 153 152 153 163 171 178 185 188 192 189 183 175 176 178 179 172 159 144 127 116 108 105 98 85 74 72 87 119 142 153 158 160 161 161 163 164
191 189 186 184 185 185 185 183 185 186 185 183 180 176 174 172 173 173 172 170 168 166 163 159 152 145 145 154 161 163 164 165 159 153 149 152 165 177 184 184 187 193 192 185 179 180 183 185 180 167 152 140 128 117 111 109 105 97 86 76 91 126 146 152 155 157 160 161 162
190 189 188 188 187 187 186 186 186 185 182 180 177 176 176 177 177 176 176 174 173 171 167 160 153 154 159 165 163 164 166 169 161 153 151 158 172 185 194 193 191 198 198 191 185 184 185 187 184 172 158 144 133 124 119 119 118 119 120 117 107 115 133 141 150 155 159 163 165
191 190 190 190 189 189 189 187 184 182 180 178 178 179 180 182 182 181 179 177 176 173 166 158 157 162 167 168 164 164 167 169 162 159 159 165 177 187 195 194 192 201 203 197 191 188 187 187 185 174 160 145 135 127 124 125 128 131 137 141 146 145 125 115 141 153 159 163 165
191 191 191 191 192 191 189 186 182 180 179 178 180 182 184 186 185 183 180 177 174 171 168 164 164 168 171 170 166 166 167 167 167 166 167 169 175 182 188 191 192 202 206 203 196 192 190 189 187 175 159 146 136 128 124 126 129 134 140 147 153 155 150 121 121 147 157 162 163
193 193 192 193 193 192 188 185 182 180 180 180 183 185 187 188 186 184 180 177 174 174 173 172 170 171 173 173 169 169 169 170 170 170 172 172 173 176 180 186 192 202 207 206 199 195 193 193 188 174 158 146 136 126 121 121 124 127 134 142 153 158 158 151 149 156 163 165 160
194 194 194 194 193 190 187 184 182 181 181 182 186 187 188 187 186 185 183 181 178 177 176 174 173 173 174 172 169 170 171 171 169 169 170 170 169 170 174 183 195 204 206 206 201 197 196 197 188 171 155 145 135 124 118 118 118 120 127 136 144 151 149 143 138 142 158 162 140
195 194 194 194 192 189 186 184 182 182 182 185 188 189 189 187 187 187 185 181 178 177 177 177 174 173 173 172 169 168 169 169 168 168 169 168 166 169 174 183 196 205 206 206 201 199 198 200 187 167 151 139 131 123 120 121 123 128 132 137 134 124 106 83 68 51 47 89 106
195 194 194 193 191 188 186 184 183 183 185 188 190 190 190 189 188 186 184 179 176 176 178 178 176 175 175 176 173 170 169 167 167 168 168 167 166 169 175 182 193 203 206 205 201 198 198 200 185 162 146 133 127 124 125 126 130 135 138 137 131 117 101 82 64 42 32 52 94
195 194 193 192 190 188 186 184 184 186 188 191 191 190 189 188 187 185 182 178 177 178 180 179 178 179 179 178 176 173 169 165 164 167 169 170 168 171 175 182 191 201 204 203 199 197 198 201 180 158 142 131 130 131 131 131 133 137 138 136 129 119 107 94 72 49 36 45 88
195 194 192 191 190 189 187 186 186 189 191 192 191 189 187 185 185 184 183 181 180 180 182 182 183 182 181 177 174 171 167 163 164 166 170 173 173 172 174 181 189 197 200 201 196 195 196 201 174 153 141 137 139 140 139 137 137 138 137 133 124 115 105 91 73 52 44 56 111
194 193 192 191 190 189 188 188 190 191 191 190 188 186 184 183 184 185 185 184 181 181 182 183 185 183 178 172 169 168 166 165 165 167 170 174 176 175 175 178 185 191 195 197 194 193 194 198 171 154 145 143 145 145 144 142 141 139 135 129 122 116 108 98 86 68 59 84 140
193 192 192 191 191 189 189 190 191 191 189 186 185 185 184 184 184 184 183 183 181 181 181 183 183 179 175 170 167 166 167 168 168 168 168 172 177 180 180 178 180 184 189 194 192 192 192 194 172 158 150 147 148 148 146 143 142 141 138 133 130 127 124 120 113 107 105 125 154
190 190 191 192 191 190 190 190 191 189 186 183 184 184 183 181 180 180 180 181 181 181 181 181 179 177 174 171 167 165 166 169 171 169 167 167 176 181 182 178 176 178 185 192 191 192 192 193 174 162 155 152 151 150 147 143 143 144 145 145 141 140 139 140 135 135 139 163 180